SCP
0 0 0 0 0 0 0 0 0 0 0 0 0 0 0 0 0 0 -0 -0 0 0 -0 -0 -0 0 0 0 0 0 0 0 0 0 0 0 0 0 0 0 0 0 0 0
0 0 0 0 0 0 0 0 0 0 0 0 0 0 0 0 0 0 0 0 0 -0 0 0 0 0 0 0 0 0 0 0 0 0 0 0 0 0 0 0 0 0 0 0
0 0 0 0 0 0 0 0 0 0 0 0 0 0 0 0 1 1 0 0 1 -0 -0 0 0 0 0 0 0 0 0 0 0 0 0 0 0 0 0 0 0 0 0 0
0 0 0 0 0 0 0 0 0 0 0 0 0 0 0 0 1 1 1 0 0 -0 0 1 0 0 0 0 0 0 0 0 0 0 0 0 0 0 0 0 0 0 0 0
0 0 0 0 0 0 0 0 0 0 0 0 0 0 0 0 1 1 1 2 2 1 1 0 0 0 0 0 0 0 0 0 0 0 0 0 0 0 0 0 0 0 0 0
0 0 0 0 0 0 -0 0 0 0 0 0 0 0 0 0 1 2 2 2 1 0 0 0 0 0 0 0 0 0 0 0 0 0 0 0 0 0 0 0 0 0 0 0
0 0 0 0 0 0 0 0 0 0 0 0 0 0 0 0 3 3 3 2 1 0 0 0 0 0 0 0 0 0 0 0 0 0 0 0 0 0 0 0 0 0 0 0
0 0 0 0 0 -0 0 0 0 0 0 0 0 0 0 2 3 2 1 0 0 0 0 0 0 0 0 0 0 0 0 0 0 0 0 0 0 0 0 0 0 0 0 0
0 0 0 0 0 0 0 0 0 0 0 0 1 0 1 3 3 2 1 0 0 0 0 0 0 0 0 0 0 0 0 0 0 0 0 0 0 0 0 0 0 0 0 0
0 0 0 0 0 0 0 0 0 0 0 0 1 0 1 3 2 1 1 1 0 0 0 0 0 0 0 0 0 0 0 0 0 0 0 0 0 0 0 0 0 0 0 0
0 0 0 0 0 0 0 0 0 0 0 0 0 -0 -0 1 0 0 1 0 0 0 0 0 0 0 0 0 0 0 0 0 0 0 0 0 0 0 0 0 0 0 0 0
0 0 0 0 0 0 0 0 0 0 0 0 0 0 0 0 0 0 0 0 0 0 0 0 0 0 0 0 0 0 0 0 0 0 0 0 0 0 -0 -0 0 0 0 0
0 0 0 0 0 0 0 0 0 0 0 0 0 0 0 1 0 0 0 0 0 0 0 0 0 0 0 -0 0 0 0 0 0 0 0 0 0 0 -0 -0 -0 -0 -0 0
0 0 0 0 0 0 -0 -0 -0 0 0 1 1 1 1 1 1 0 0 0 0 0 0 0 0 0 0 0 0 0 0 0 0 0 0 0 0 -0 0 0 0 -0 -0 0
0 0 0 0 0 0 -0 0 0 0 0 0 0 0 1 1 1 0 0 0 0 0 0 0 0 0 0 0 0 0 0 0 0 0 0 0 0 0 0 0 0 0 -0 0
0 0 0 0 0 0 0 0 0 0 0 0 0 0 0 1 0 0 0 0 0 0 0 0 0 -0 -0 0 0 0 0 0 0 0 0 0 0 0 0 0 0 0 0 0
0 0 0 0 0 0 0 0 0 0 0 0 0 0 0 0 0 0 0 0 0 0 0 0 0 -0 0 0 0 0 0 0 0 0 0 0 0 0 0 0 0 0 0 0
0 -0 -0 -0 0 0 0 0 0 0 0 0 0 0 0 0 0 0 0 0 0 0 0 0 0 0 0 0 0 0 0 0 0 0 0 0 0 -0 0 -0 -0 0 0 0
0 -0 -0 -0 0 0 0 0 0 0 0 0 0 0 0 -0 0 0 0 0 0 0 0 0 -0 0 0 0 0 0 0 0 0 0 0 0 -0 -0 -0 0 0 0 0 0
0 -0 -0 -0 0 0 0 0 0 0 0 0 0 0 0 -0 -0 -0 0 0 0 0 0 0 0 0 0 0 0 0 0 0 0 0 0 0 0 0 0 0 0 0 0 0
0 -0 -0 -0 0 0 0 0 0 0 0 0 0 0 0 0 -0 -0 -0 0 0 -0 0 0 0 0 0 0 0 0 0 0 0 0 0 0 0 0 0 0 0 0 0 0
-0 -0 -0 0 0 0 0 0 0 0 0 0 0 0 0 0 0 0 0 0 0 0 0 0 0 0 0 0 0 0 0 0 0 0 0 0 0 0 0 0 0 0 0 0
-0 0 0 0 0 0 0 0 0 0 0 0 -0 -0 0 0 0 0 0 0 0 0 0 0 0 0 0 0 0 0 0 0 0 0 0 0 0 0 0 0 0 0 0 0
0 0 0 0 0 0 0 0 0 0 0 0 0 -0 -0 0 0 0 0 0 0 0 0 0 0 0 0 0 0 0 0 0 0 0 0 0 0 0 0 0 0 0 0 0
0 0 0 0 0 0 0 0 0 0 0 0 0 0 0 0 0 0 0 0 0 0 0 0 0 0 0 0 0 0 0 0 0 -0 0 0 0 0 0 0 0 0 0 0
0 0 0 0 0 0 0 0 0 0 0 0 0 0 0 0 0 0 0 0 0 -0 0 0 0 0 -0 0 0 0 0 0 0 0 0 0 0 0 0 0 0 0 0 0
0 0 0 0 0 0 0 0 0 0 0 0 0 0 0 0 0 0 -0 0 0 0 -0 -0 -0 -0 -0 -0 -0 -0 -0 0 0 0 0 0 0 0 0 0 0 0 0 0
Wind_Speed_500mb
13 12 9 11 10 12 12 12 10 11 18 20 23 27 41 52 37 52 65 73 81 85 92 87 84 74 62 56 57 49 44 40 30 25 19 14 10 10 9 5 7 9 9 11
12 7 11 12 12 12 8 8 10 7 14 11 12 14 23 56 62 65 71 75 79 86 96 94 87 76 68 63 56 52 46 37 32 26 21 17 14 13 14 16 16 15 15 16
11 7 12 5 14 10 9 16 5 7 11 16 15 15 39 53 59 64 79 83 88 96 102 92 86 78 73 65 56 52 43 39 34 26 20 20 19 19 21 20 19 19 18 18
8 12 1 11 16 11 25 15 14 10 16 23 35 51 51 75 82 74 77 79 86 91 86 82 79 73 64 60 62 56 47 43 35 26 24 24 22 23 24 23 24 25 26 26
4 5 12 10 15 10 9 5 14 22 30 40 43 4 13 49 78 95 84 61 65 74 81 82 74 59 55 58 59 51 48 41 33 29 29 30 31 29 27 29 30 33 28 25
6 3 5 7 20 14 12 5 26 32 25 28 35 2 10 32 57 60 61 73 79 79 85 83 71 59 52 55 58 54 44 38 33 30 28 30 33 33 31 31 26 26 22 19
8 8 12 9 22 19 13 11 47 39 45 39 9 13 35 22 53 67 73 80 80 80 83 82 65 50 41 69 65 50 39 36 33 28 27 30 34 32 31 28 25 23 23 20
2 5 4 30 11 14 13 26 26 43 41 37 34 27 28 40 68 80 82 83 77 81 80 74 67 69 53 71 60 50 39 38 33 30 33 36 35 34 35 29 26 22 19 15
9 8 6 15 4 14 1 26 30 38 43 33 24 12 28 53 66 73 79 75 68 73 76 72 70 71 49 65 58 49 44 38 33 34 35 36 35 38 38 33 27 21 18 15
7 9 13 34 12 15 10 27 30 29 36 24 14 17 29 43 52 57 59 68 72 74 73 81 64 50 50 64 57 49 42 38 36 36 37 34 33 35 38 33 25 20 21 18
9 16 27 12 19 17 22 30 30 31 23 15 1 13 22 38 46 46 55 73 70 64 67 66 62 60 61 55 49 48 41 37 36 36 39 37 36 38 36 27 22 18 14 12
11 17 17 26 27 34 44 28 31 26 18 10 18 28 34 38 42 36 37 42 48 62 67 61 56 62 54 46 46 45 40 37 38 41 44 39 41 36 32 30 25 21 17 15
14 29 36 46 50 54 30 31 28 20 24 9 19 33 29 31 25 41 35 32 46 45 54 58 58 63 57 57 50 42 37 36 42 45 44 45 47 39 34 33 27 23 23 25
62 45 56 68 49 55 53 49 35 22 15 23 26 22 33 50 54 54 47 50 47 29 52 55 59 58 57 56 49 38 30 32 40 42 41 45 42 37 31 28 29 27 26 32
73 71 68 51 53 66 56 57 45 46 47 48 47 43 47 58 64 62 58 56 52 37 46 49 63 61 57 52 42 35 35 39 43 41 42 42 37 34 35 32 30 26 29 28
36 43 44 49 44 44 43 42 51 52 58 46 54 45 48 56 69 67 61 54 47 24 41 59 63 56 55 48 39 37 41 52 48 40 37 35 30 31 30 25 26 31 37 33
31 57 47 45 51 56 58 59 60 58 54 52 56 52 46 48 56 62 55 49 35 39 61 72 59 59 51 41 40 44 50 54 45 36 33 29 28 29 28 28 27 22 21 27
32 29 27 30 42 51 56 55 57 66 50 40 39 37 47 43 49 43 46 54 49 49 64 61 59 48 43 41 43 46 48 44 37 34 31 30 26 31 32 31 28 31 34 32
22 29 36 40 47 51 52 50 52 48 30 29 36 43 45 28 16 7 16 38 49 54 55 54 44 40 41 42 45 43 45 38 31 31 32 33 33 32 36 33 40 40 35 37
30 31 38 46 52 46 47 33 34 20 25 40 47 38 37 55 44 40 59 71 57 58 53 48 43 42 38 41 43 45 43 34 25 16 20 26 33 37 38 34 36 38 38 36
31 33 36 41 41 41 29 30 31 32 27 44 51 42 51 62 55 46 50 72 65 52 50 44 41 39 38 42 46 50 40 29 19 10 7 8 12 16 18 26 29 31 38 37
31 34 32 38 28 22 20 24 21 21 27 30 38 41 49 54 44 44 52 57 51 49 43 37 39 36 44 44 45 48 37 24 12 14 15 12 17 20 16 15 25 32 32 29
33 28 35 36 29 25 24 30 24 26 28 29 33 34 34 41 51 58 54 47 43 41 36 37 36 37 39 38 45 44 33 20 17 24 21 19 17 13 12 12 17 22 29 30
27 24 29 29 31 29 31 31 30 27 23 30 34 41 52 58 49 41 37 37 35 34 35 36 33 37 38 38 44 38 27 21 13 16 21 25 20 20 25 15 24 35 28 26
20 19 13 28 37 39 39 33 31 31 31 35 45 49 46 39 34 39 34 36 35 33 39 41 40 34 32 30 35 37 27 19 16 18 19 23 28 29 21 22 30 36 28 29
15 5 18 38 41 42 40 39 44 48 52 57 52 45 38 38 40 38 36 38 38 42 42 43 37 31 25 24 29 29 25 23 26 28 30 32 31 19 31 39 30 33 28 28
4 5 22 40 42 47 48 51 60 60 60 57 53 48 48 48 39 32 32 37 43 47 40 34 30 27 27 28 29 28 26 28 28 27 33 36 45 48 34 30 28 30 30 32
Wind_Direction_500mb
295 264 272 184 206 168 180 191 166 260 201 240 240 196 207 196 184 186 183 188 195 191 186 186 186 184 186 186 187 190 195 194 192 195 207 219 242 264 248 203 166 152 141 138
299 339 240 269 226 215 189 164 247 255 265 257 316 159 174 191 185 186 191 192 192 194 190 189 188 186 187 189 194 196 199 195 193 199 208 230 241 223 200 171 152 132 128 129
284 329 256 287 228 184 99 40 333 19 281 315 272 201 195 196 195 195 196 197 197 199 195 194 189 191 191 190 193 194 197 192 191 199 217 230 228 198 178 165 151 132 125 127
257 324 2 243 337 354 98 70 16 294 297 309 276 246 226 207 201 200 205 204 201 198 190 190 193 194 194 190 192 188 192 193 194 202 220 221 205 186 170 164 156 147 135 121
163 255 287 20 6 342 28 339 7 330 324 324 335 286 240 226 216 217 212 193 182 187 191 189 192 196 193 191 194 190 190 197 204 215 216 208 195 180 170 160 153 151 145 135
154 260 254 226 304 293 206 227 342 341 317 322 334 150 252 239 212 199 191 189 187 191 192 190 192 187 191 206 200 197 194 202 210 216 211 200 187 175 170 163 159 169 175 168
171 202 285 296 316 0 67 265 315 320 311 308 309 257 308 293 197 201 192 187 189 192 193 194 184 185 197 204 201 201 197 208 212 211 203 191 183 175 168 169 176 183 188 195
313 166 219 345 0 95 221 290 319 339 334 319 328 297 256 193 185 188 188 187 190 186 190 187 190 189 184 198 200 199 202 209 207 204 194 186 183 177 176 183 183 187 195 213
180 236 277 354 330 154 311 294 335 344 342 345 18 120 178 177 172 177 179 178 184 187 184 183 193 198 186 192 197 200 204 204 205 194 190 186 184 177 181 187 188 193 219 227
27 269 243 303 271 228 328 302 306 329 336 356 31 127 154 164 170 172 180 180 184 184 185 191 190 190 192 193 192 198 202 204 195 190 184 187 183 186 190 191 199 211 220 228
256 281 294 273 295 323 297 289 301 306 318 321 138 143 140 161 167 181 189 188 184 194 201 191 184 189 189 195 191 195 201 199 193 189 184 182 181 182 188 198 207 222 202 172
240 252 247 270 292 309 315 328 306 293 296 272 217 176 163 163 202 211 209 216 202 200 196 191 189 191 191 201 199 197 195 196 196 191 187 191 186 187 197 194 201 201 202 213
249 294 299 290 296 296 323 344 338 294 282 195 180 218 231 214 246 233 228 233 223 218 208 203 199 185 200 205 199 197 202 201 197 189 187 188 186 194 195 193 206 225 242 257
280 282 291 290 286 295 312 323 320 308 268 279 290 267 247 235 227 222 224 243 233 232 225 212 199 197 199 198 195 195 197 197 187 184 186 184 189 195 205 213 229 246 257 268
272 275 280 296 291 280 293 302 296 282 281 268 271 263 260 239 225 216 220 214 213 213 211 206 201 203 200 196 193 191 188 185 178 177 177 189 205 220 236 246 256 271 278 275
270 282 281 296 295 298 308 301 312 296 305 270 259 257 253 237 224 213 205 205 191 202 222 207 202 202 198 194 193 192 187 175 174 181 192 204 216 225 239 250 265 274 275 273
282 290 299 301 303 305 302 301 305 309 307 286 270 250 247 234 217 205 199 203 196 178 229 208 198 198 198 194 200 195 183 177 182 194 206 214 228 231 242 264 284 275 276 277
272 285 298 302 299 299 296 294 302 304 294 280 249 238 216 202 181 186 198 203 196 187 199 200 199 194 195 198 194 190 184 186 197 202 212 223 235 241 252 260 279 272 284 270
292 321 314 304 293 291 286 291 302 300 270 229 208 183 181 159 175 226 232 211 204 185 192 193 196 197 199 196 189 186 189 197 211 222 233 243 249 254 253 265 268 278 281 267
305 322 317 297 282 274 274 282 295 271 257 206 192 201 189 203 207 198 208 236 211 194 187 187 185 191 193 189 187 187 192 195 202 223 239 244 243 242 256 270 274 271 268 270
300 325 311 294 281 263 267 274 263 242 245 211 203 203 194 193 208 219 212 199 192 188 184 178 183 183 187 188 187 188 187 184 198 235 233 244 235 235 244 265 286 289 274 265
306 315 299 290 267 238 249 253 226 227 223 213 205 214 212 215 216 202 194 188 181 175 178 182 185 191 187 183 186 186 186 189 216 214 212 223 232 239 265 304 313 293 270 278
297 301 289 285 224 208 216 218 223 222 220 204 200 196 189 180 176 173 175 178 178 180 187 182 177 177 175 179 187 189 195 203 229 231 228 250 256 271 275 292 301 309 297 284
286 284 287 243 194 201 204 206 209 204 203 190 173 161 164 161 162 172 176 174 169 169 169 166 167 171 179 189 192 192 198 203 211 220 243 251 249 275 279 286 319 316 291 292
266 300 260 194 191 191 199 196 181 167 166 162 158 159 163 161 162 158 162 161 161 158 156 158 159 163 165 168 178 184 197 218 242 252 268 286 280 285 274 292 321 314 291 313
300 146 152 187 194 195 196 182 167 162 160 155 154 161 156 152 151 143 151 157 155 151 154 157 160 166 168 170 185 203 227 242 255 266 269 278 282 261 293 292 314 309 295 306
241 136 162 174 186 189 186 170 160 157 158 159 156 154 149 145 141 135 140 149 149 152 153 162 171 179 190 198 206 218 238 254 256 256 259 279 290 280 292 284 300 301 298 302
Wind_Speed_850mb
13 12 9 11 10 12 12 12 10 11 18 20 23 27 41 52 37 52 65 73 81 85 92 87 84 74 62 56 57 49 44 40 30 25 19 14 10 10 9 5 7 9 9 11
12 7 11 12 12 12 8 8 10 7 14 11 12 14 23 56 62 65 71 75 79 86 96 94 87 76 68 63 56 52 46 37 32 26 21 17 14 13 14 16 16 15 15 16
11 7 12 5 14 10 9 16 5 7 11 16 15 15 39 53 59 64 79 83 88 96 102 92 86 78 73 65 56 52 43 39 34 26 20 20 19 19 21 20 19 19 18 18
8 12 1 11 16 11 25 15 14 10 16 23 35 51 51 75 82 74 77 79 86 91 86 82 79 73 64 60 62 56 47 43 35 26 24 24 22 23 24 23 24 25 26 26
4 5 12 10 15 10 9 5 14 22 30 40 43 4 13 49 78 95 84 61 65 74 81 82 74 59 55 58 59 51 48 41 33 29 29 30 31 29 27 29 30 33 28 25
6 3 5 7 20 14 12 5 26 32 25 28 35 2 10 32 57 60 61 73 79 79 85 83 71 59 52 55 58 54 44 38 33 30 28 30 33 33 31 31 26 26 22 19
8 8 12 9 22 19 13 11 47 39 45 39 9 13 35 22 53 67 73 80 80 80 83 82 65 50 41 69 65 50 39 36 33 28 27 30 34 32 31 28 25 23 23 20
2 5 4 30 11 14 13 26 26 43 41 37 34 27 28 40 68 80 82 83 77 81 80 74 67 69 53 71 60 50 39 38 33 30 33 36 35 34 35 29 26 22 19 15
9 8 6 15 4 14 1 26 30 38 43 33 24 12 28 53 66 73 79 75 68 73 76 72 70 71 49 65 58 49 44 38 33 34 35 36 35 38 38 33 27 21 18 15
7 9 13 34 12 15 10 27 30 29 36 24 14 17 29 43 52 57 59 68 72 74 73 81 64 50 50 64 57 49 42 38 36 36 37 34 33 35 38 33 25 20 21 18
9 16 27 12 19 17 22 30 30 31 23 15 1 13 22 38 46 46 55 73 70 64 67 66 62 60 61 55 49 48 41 37 36 36 39 37 36 38 36 27 22 18 14 12
11 17 17 26 27 34 44 28 31 26 18 10 18 28 34 38 42 36 37 42 48 62 67 61 56 62 54 46 46 45 40 37 38 41 44 39 41 36 32 30 25 21 17 15
14 29 36 46 50 54 30 31 28 20 24 9 19 33 29 31 25 41 35 32 46 45 54 58 58 63 57 57 50 42 37 36 42 45 44 45 47 39 34 33 27 23 23 25
62 45 56 68 49 55 53 49 35 22 15 23 26 22 33 50 54 54 47 50 47 29 52 55 59 58 57 56 49 38 30 32 40 42 41 45 42 37 31 28 29 27 26 32
73 71 68 51 53 66 56 57 45 46 47 48 47 43 47 58 64 62 58 56 52 37 46 49 63 61 57 52 42 35 35 39 43 41 42 42 37 34 35 32 30 26 29 28
36 43 44 49 44 44 43 42 51 52 58 46 54 45 48 56 69 67 61 54 47 24 41 59 63 56 55 48 39 37 41 52 48 40 37 35 30 31 30 25 26 31 37 33
31 57 47 45 51 56 58 59 60 58 54 52 56 52 46 48 56 62 55 49 35 39 61 72 59 59 51 41 40 44 50 54 45 36 33 29 28 29 28 28 27 22 21 27
32 29 27 30 42 51 56 55 57 66 50 40 39 37 47 43 49 43 46 54 49 49 64 61 59 48 43 41 43 46 48 44 37 34 31 30 26 31 32 31 28 31 34 32
22 29 36 40 47 51 52 50 52 48 30 29 36 43 45 28 16 7 16 38 49 54 55 54 44 40 41 42 45 43 45 38 31 31 32 33 33 32 36 33 40 40 35 37
30 31 38 46 52 46 47 33 34 20 25 40 47 38 37 55 44 40 59 71 57 58 53 48 43 42 38 41 43 45 43 34 25 16 20 26 33 37 38 34 36 38 38 36
31 33 36 41 41 41 29 30 31 32 27 44 51 42 51 62 55 46 50 72 65 52 50 44 41 39 38 42 46 50 40 29 19 10 7 8 12 16 18 26 29 31 38 37
31 34 32 38 28 22 20 24 21 21 27 30 38 41 49 54 44 44 52 57 51 49 43 37 39 36 44 44 45 48 37 24 12 14 15 12 17 20 16 15 25 32 32 29
33 28 35 36 29 25 24 30 24 26 28 29 33 34 34 41 51 58 54 47 43 41 36 37 36 37 39 38 45 44 33 20 17 24 21 19 17 13 12 12 17 22 29 30
27 24 29 29 31 29 31 31 30 27 23 30 34 41 52 58 49 41 37 37 35 34 35 36 33 37 38 38 44 38 27 21 13 16 21 25 20 20 25 15 24 35 28 26
20 19 13 28 37 39 39 33 31 31 31 35 45 49 46 39 34 39 34 36 35 33 39 41 40 34 32 30 35 37 27 19 16 18 19 23 28 29 21 22 30 36 28 29
15 5 18 38 41 42 40 39 44 48 52 57 52 45 38 38 40 38 36 38 38 42 42 43 37 31 25 24 29 29 25 23 26 28 30 32 31 19 31 39 30 33 28 28
4 5 22 40 42 47 48 51 60 60 60 57 53 48 48 48 39 32 32 37 43 47 40 34 30 27 27 28 29 28 26 28 28 27 33 36 45 48 34 30 28 30 30 32
Wind_Direction_850mb
295 264 272 184 206 168 180 191 166 260 201 240 240 196 207 196 184 186 183 188 195 191 186 186 186 184 186 186 187 190 195 194 192 195 207 219 242 264 248 203 166 152 141 138
299 339 240 269 226 215 189 164 247 255 265 257 316 159 174 191 185 186 191 192 192 194 190 189 188 186 187 189 194 196 199 195 193 199 208 230 241 223 200 171 152 132 128 129
284 329 256 287 228 184 99 40 333 19 281 315 272 201 195 196 195 195 196 197 197 199 195 194 189 191 191 190 193 194 197 192 191 199 217 230 228 198 178 165 151 132 125 127
257 324 2 243 337 354 98 70 16 294 297 309 276 246 226 207 201 200 205 204 201 198 190 190 193 194 194 190 192 188 192 193 194 202 220 221 205 186 170 164 156 147 135 121
163 255 287 20 6 342 28 339 7 330 324 324 335 286 240 226 216 217 212 193 182 187 191 189 192 196 193 191 194 190 190 197 204 215 216 208 195 180 170 160 153 151 145 135
154 260 254 226 304 293 206 227 342 341 317 322 334 150 252 239 212 199 191 189 187 191 192 190 192 187 191 206 200 197 194 202 210 216 211 200 187 175 170 163 159 169 175 168
171 202 285 296 316 0 67 265 315 320 311 308 309 257 308 293 197 201 192 187 189 192 193 194 184 185 197 204 201 201 197 208 212 211 203 191 183 175 168 169 176 183 188 195
313 166 219 345 0 95 221 290 319 339 334 319 328 297 256 193 185 188 188 187 190 186 190 187 190 189 184 198 200 199 202 209 207 204 194 186 183 177 176 183 183 187 195 213
180 236 277 354 330 154 311 294 335 344 342 345 18 120 178 177 172 177 179 178 184 187 184 183 193 198 186 192 197 200 204 204 205 194 190 186 184 177 181 187 188 193 219 227
27 269 243 303 271 228 328 302 306 329 336 356 31 127 154 164 170 172 180 180 184 184 185 191 190 190 192 193 192 198 202 204 195 190 184 187 183 186 190 191 199 211 220 228
256 281 294 273 295 323 297 289 301 306 318 321 138 143 140 161 167 181 189 188 184 194 201 191 184 189 189 195 191 195 201 199 193 189 184 182 181 182 188 198 207 222 202 172
240 252 247 270 292 309 315 328 306 293 296 272 217 176 163 163 202 211 209 216 202 200 196 191 189 191 191 201 199 197 195 196 196 191 187 191 186 187 197 194 201 201 202 213
249 294 299 290 296 296 323 344 338 294 282 195 180 218 231 214 246 233 228 233 223 218 208 203 199 185 200 205 199 197 202 201 197 189 187 188 186 194 195 193 206 225 242 257
280 282 291 290 286 295 312 323 320 308 268 279 290 267 247 235 227 222 224 243 233 232 225 212 199 197 199 198 195 195 197 197 187 184 186 184 189 195 205 213 229 246 257 268
272 275 280 296 291 280 293 302 296 282 281 268 271 263 260 239 225 216 220 214 213 213 211 206 201 203 200 196 193 191 188 185 178 177 177 189 205 220 236 246 256 271 278 275
270 282 281 296 295 298 308 301 312 296 305 270 259 257 253 237 224 213 205 205 191 202 222 207 202 202 198 194 193 192 187 175 174 181 192 204 216 225 239 250 265 274 275 273
282 290 299 301 303 305 302 301 305 309 307 286 270 250 247 234 217 205 199 203 196 178 229 208 198 198 198 194 200 195 183 177 182 194 206 214 228 231 242 264 284 275 276 277
272 285 298 302 299 299 296 294 302 304 294 280 249 238 216 202 181 186 198 203 196 187 199 200 199 194 195 198 194 190 184 186 197 202 212 223 235 241 252 260 279 272 284 270
292 321 314 304 293 291 286 291 302 300 270 229 208 183 181 159 175 226 232 211 204 185 192 193 196 197 199 196 189 186 189 197 211 222 233 243 249 254 253 265 268 278 281 267
305 322 317 297 282 274 274 282 295 271 257 206 192 201 189 203 207 198 208 236 211 194 187 187 185 191 193 189 187 187 192 195 202 223 239 244 243 242 256 270 274 271 268 270
300 325 311 294 281 263 267 274 263 242 245 211 203 203 194 193 208 219 212 199 192 188 184 178 183 183 187 188 187 188 187 184 198 235 233 244 235 235 244 265 286 289 274 265
306 315 299 290 267 238 249 253 226 227 223 213 205 214 212 215 216 202 194 188 181 175 178 182 185 191 187 183 186 186 186 189 216 214 212 223 232 239 265 304 313 293 270 278
297 301 289 285 224 208 216 218 223 222 220 204 200 196 189 180 176 173 175 178 178 180 187 182 177 177 175 179 187 189 195 203 229 231 228 250 256 271 275 292 301 309 297 284
286 284 287 243 194 201 204 206 209 204 203 190 173 161 164 161 162 172 176 174 169 169 169 166 167 171 179 189 192 192 198 203 211 220 243 251 249 275 279 286 319 316 291 292
266 300 260 194 191 191 199 196 181 167 166 162 158 159 163 161 162 158 162 161 161 158 156 158 159 163 165 168 178 184 197 218 242 252 268 286 280 285 274 292 321 314 291 313
300 146 152 187 194 195 196 182 167 162 160 155 154 161 156 152 151 143 151 157 155 151 154 157 160 166 168 170 185 203 227 242 255 266 269 278 282 261 293 292 314 309 295 306
241 136 162 174 186 189 186 170 160 157 158 159 156 154 149 145 141 135 140 149 149 152 153 162 171 179 190 198 206 218 238 254 256 256 259 279 290 280 292 284 300 301 298 302